Theta_e
306 306 307 307 307 307 307 308 308 308 308 308 308 308 309 313 315 316 319 320 322 322 326 326 325 324 323 322 324 319 324 323 319 315 317 314 314 314 316 317 317 316 315 314 314
307 307 307 307 307 307 307 308 308 308 308 308 308 308 309 312 315 318 319 320 322 322 324 323 322 322 321 323 323 321 318 320 315 315 314 313 314 315 317 318 317 314 314 314 314
306 307 307 307 307 307 307 308 308 308 308 308 308 308 308 312 322 320 319 321 322 323 322 324 322 322 323 322 323 323 325 318 317 315 313 313 315 316 317 318 316 314 313 313 313
306 307 307 307 307 307 307 307 308 308 308 308 308 308 308 314 319 321 323 323 323 322 323 322 320 320 320 321 320 323 322 318 317 316 314 314 315 318 318 317 316 314 313 313 313
305 306 306 306 306 307 307 307 308 308 308 308 308 308 310 320 318 320 320 323 323 322 324 320 321 321 322 322 321 319 319 317 316 314 315 315 316 317 317 316 315 313 313 313 312
303 304 304 304 305 306 307 307 308 308 308 308 308 308 314 320 317 317 319 321 323 323 323 321 321 321 322 322 320 319 317 317 315 314 314 315 316 317 316 316 314 313 312 312 313
302 302 303 303 304 305 306 306 307 308 308 308 309 310 319 313 316 322 322 322 323 324 322 322 322 323 322 322 319 318 319 317 316 314 316 314 316 315 316 316 314 313 312 313 312
302 301 301 301 303 304 305 306 306 307 308 309 315 315 316 313 314 314 318 322 323 323 322 322 322 320 319 319 319 320 317 318 317 315 316 315 316 315 316 316 314 313 313 313 313
304 302 299 299 300 301 304 306 307 308 310 316 313 319 317 316 318 315 318 320 322 322 322 322 321 318 318 318 318 318 320 317 318 315 316 315 316 316 316 316 315 313 313 313 314
304 302 301 298 298 298 303 307 309 313 318 311 317 315 311 314 321 318 320 321 321 321 322 321 317 319 315 317 321 319 320 318 318 317 315 314 314 315 316 315 315 313 313 314 314
304 303 302 301 299 299 301 306 310 319 320 314 313 314 318 317 316 321 322 322 322 322 321 320 319 319 319 318 318 319 320 321 320 318 317 316 315 315 317 316 314 313 313 314 314
305 303 302 302 302 301 299 305 309 309 311 313 317 315 316 316 316 319 322 322 321 322 321 321 320 320 319 319 319 318 319 319 318 318 316 317 317 315 316 317 315 313 313 313 313
305 304 303 302 302 300 303 307 309 310 313 316 315 317 317 317 317 317 322 321 322 322 320 322 322 321 320 321 320 319 319 319 319 319 316 316 316 318 317 317 316 313 313 312 312
304 304 303 302 302 301 304 307 309 309 315 316 318 317 317 317 318 318 319 321 320 323 320 320 320 321 321 321 319 319 318 318 320 318 317 316 317 318 318 318 318 314 312 312 312
304 304 303 302 303 301 303 305 309 310 314 314 317 318 316 317 318 318 320 321 321 321 320 322 320 321 321 322 320 321 320 318 319 319 317 319 318 318 319 320 322 314 313 311 311
304 304 303 303 302 302 301 305 310 316 317 316 316 318 317 317 318 318 319 320 321 320 320 321 319 320 321 321 320 320 317 318 317 317 318 317 318 318 321 321 322 316 314 312 311
306 304 304 303 301 303 302 307 316 318 314 316 314 317 317 317 318 318 318 320 321 322 321 321 321 320 319 319 317 316 315 316 319 320 322 320 320 320 319 319 322 320 315 313 312
308 304 304 303 303 302 303 312 317 314 314 314 313 316 318 317 317 319 318 319 318 320 321 322 323 321 319 319 319 315 315 317 320 320 320 324 325 325 321 324 319 321 316 313 312
308 306 305 303 303 303 303 316 317 314 313 315 315 315 316 317 318 318 319 319 318 318 323 322 322 320 319 317 315 316 318 316 318 320 322 323 325 328 325 325 322 317 314 314 313
307 305 303 304 303 303 305 316 315 314 313 314 314 315 316 315 316 317 318 319 319 318 318 320 322 320 320 320 319 315 316 318 316 322 323 323 328 329 329 327 325 317 315 314 312
306 306 304 303 303 301 303 310 314 314 314 313 313 312 315 316 315 315 317 318 318 318 317 317 319 321 323 323 320 321 323 323 317 319 322 322 327 327 329 328 326 319 315 314 313
305 306 303 303 303 302 302 305 313 314 314 315 314 313 314 316 317 315 316 318 318 318 318 317 318 321 327 329 327 320 321 324 323 326 325 325 329 325 329 330 326 321 316 314 314
304 306 302 304 305 304 304 304 309 312 314 312 313 314 314 315 315 317 318 319 317 317 316 316 317 321 325 331 328 328 331 329 327 328 332 333 330 326 330 325 322 318 316 314 314
303 306 305 305 303 304 304 303 305 307 309 310 312 313 312 313 313 315 319 318 317 319 323 320 317 320 322 322 328 330 332 330 327 329 332 331 329 327 329 329 325 318 315 314 315
303 304 304 308 307 306 301 302 303 304 308 310 311 312 312 313 313 313 314 314 315 316 320 318 320 320 321 321 327 327 330 331 328 326 329 328 329 329 328 329 328 321 314 315 314
300 305 306 305 306 306 307 305 304 303 304 308 309 310 310 311 312 313 313 314 315 315 322 319 321 328 332 323 326 327 327 330 328 328 328 329 330 329 329 329 328 322 317 316 315
299 302 307 305 305 306 307 307 308 307 308 308 308 308 309 309 308 308 309 309 308 308 313 324 323 327 333 329 332 333 330 329 329 328 328 329 327 326 327 330 328 327 319 317 316
Wind_Speed
16 16 16 16 17 18 19 19 19 18 18 19 18 18 16 16 16 18 11 17 16 19 9 8 10 8 5 4 5 4 3 3 5 8 6 4 5 3 2 5 3 2 4 8 13
15 17 18 18 19 20 20 20 20 19 18 18 18 18 16 16 16 17 32 26 18 16 12 11 5 5 2 3 3 4 3 6 6 4 6 7 6 8 5 4 3 5 5 12 10
16 18 18 19 19 21 21 20 21 20 21 20 18 17 14 12 4 14 24 30 25 18 21 12 3 3 2 1 3 4 6 6 4 4 6 6 3 5 12 2 7 11 9 6 9
17 18 19 20 21 21 22 21 21 22 21 21 19 16 12 4 8 2 2 11 23 24 17 10 2 3 2 4 3 3 10 7 6 5 6 8 6 5 4 8 10 9 9 6 7
19 19 21 22 22 22 23 22 21 23 22 22 18 15 7 4 10 21 15 9 21 23 21 7 7 5 5 4 5 4 4 5 7 8 6 6 4 6 6 6 8 9 8 9 8
23 22 24 25 24 24 24 24 24 23 24 23 21 14 3 12 21 31 25 17 14 23 11 11 7 9 3 5 4 5 5 5 5 7 7 6 3 4 5 6 9 10 9 8 9
23 23 25 26 27 27 27 27 25 24 24 24 20 9 4 18 10 3 5 18 15 25 7 21 17 3 3 3 5 3 4 5 3 5 5 5 2 8 7 8 10 8 7 8 7
23 22 23 25 26 27 28 29 29 29 26 19 10 8 8 9 16 34 28 15 16 23 19 17 21 7 5 2 6 3 4 3 5 5 2 6 9 4 9 11 10 8 7 7 6
22 23 23 24 25 27 29 29 31 32 13 4 8 6 9 8 8 27 24 15 20 19 22 13 5 4 4 5 3 5 4 5 5 8 3 3 7 3 9 9 9 9 7 7 6
24 24 24 25 25 26 27 27 21 6 4 5 1 1 8 6 9 12 18 20 4 4 3 5 3 3 3 3 6 5 5 5 5 4 6 6 10 4 8 8 10 8 7 7 7
24 24 25 25 24 23 27 9 4 3 5 8 6 5 5 5 6 10 16 8 1 2 6 3 3 6 8 7 6 5 4 7 3 4 6 11 8 10 8 4 8 8 8 7 7
25 24 24 24 25 22 17 3 5 1 8 11 16 14 27 11 5 6 17 7 6 7 2 1 8 8 7 4 4 5 7 7 7 4 8 7 12 5 8 10 6 10 8 9 5
25 23 22 23 26 15 8 9 13 15 4 7 8 9 8 12 10 8 11 8 6 9 8 10 12 6 4 3 5 6 5 5 7 5 2 3 6 3 4 5 7 6 6 5 10
24 21 19 23 12 10 6 7 12 10 3 7 6 9 7 10 6 12 15 7 6 17 8 11 6 8 5 6 5 6 8 9 5 3 6 5 5 5 4 10 9 11 9 10 9
23 19 16 13 18 5 9 17 16 3 5 8 7 6 11 11 10 8 16 4 12 8 7 15 8 7 9 11 7 11 10 10 5 5 2 0 3 7 3 6 9 13 12 10 9
24 18 14 14 11 16 21 20 1 3 10 6 6 9 8 9 9 5 7 5 6 7 4 13 6 9 11 9 7 13 1 6 4 3 2 6 5 5 5 8 5 8 10 12 10
28 20 18 16 4 7 18 5 2 9 4 7 7 7 14 9 14 12 8 5 11 6 8 5 6 4 5 5 1 4 5 3 4 3 6 1 3 8 9 11 10 19 15 13 10
29 22 22 23 20 13 12 3 12 8 14 4 5 6 14 10 10 11 13 12 7 8 6 9 11 9 6 8 9 9 10 6 7 5 9 3 5 7 6 8 7 13 15 14 10
27 23 21 27 21 12 0 11 16 7 16 5 2 5 6 12 7 14 16 16 11 12 17 11 12 4 7 6 10 6 4 8 5 2 2 3 6 9 3 6 8 9 13 14 12
24 12 16 25 17 13 3 29 10 7 4 14 10 6 9 8 11 14 14 17 10 10 6 8 6 7 12 4 4 8 5 3 2 3 6 3 3 6 6 4 5 8 11 12 9
21 4 11 28 24 3 11 19 20 4 3 18 19 4 6 7 14 10 11 15 15 12 11 7 6 3 3 7 11 2 2 4 4 4 6 1 6 7 8 8 15 15 17 17 15
9 7 12 41 6 4 17 19 13 21 1 3 2 10 6 5 4 8 15 12 15 9 9 10 7 8 9 2 3 5 10 8 5 4 2 4 7 4 4 9 8 12 16 15 15
3 6 20 28 9 9 20 23 9 11 18 1 4 4 4 8 2 5 4 4 4 11 9 7 4 6 6 3 2 3 4 5 6 4 6 6 6 1 1 5 7 9 12 14 13
3 5 4 7 6 16 14 21 21 11 5 4 3 4 4 2 0 3 2 2 2 4 7 12 7 13 19 13 6 5 6 7 7 5 4 5 6 6 6 4 3 8 10 14 14
5 3 3 7 13 17 5 2 21 5 14 2 3 5 5 2 1 5 2 6 8 3 4 10 16 11 14 17 14 9 11 12 6 7 8 9 9 6 7 3 6 2 9 12 14
3 3 3 4 11 16 13 7 6 19 3 16 10 3 2 8 5 1 4 1 4 5 3 4 6 7 5 10 15 15 13 18 9 2 1 5 7 6 4 5 6 13 15 17 17
2 3 2 2 5 7 12 15 5 4 4 5 5 2 10 14 10 11 11 9 8 7 3 4 5 4 4 5 8 7 13 12 6 7 9 8 12 4 4 7 11 12 15 21 22
Wind_Direction
336 336 338 339 332 334 336 337 336 337 333 329 325 316 312 300 293 280 237 234 237 242 244 211 201 197 230 233 193 139 75 253 243 167 224 193 150 205 100 102 68 23 134 144 142
327 327 330 330 330 329 330 334 333 332 328 328 322 317 315 304 302 262 252 252 247 229 215 193 229 126 243 208 173 116 138 235 208 228 202 179 162 163 111 117 58 73 70 130 134
321 325 326 325 325 324 325 325 326 329 328 328 318 315 310 305 320 254 266 243 236 224 228 230 103 143 261 311 207 196 225 200 267 214 161 166 193 156 126 212 197 174 169 145 120
313 316 319 319 320 319 319 322 326 326 322 318 317 315 302 270 240 254 131 220 228 227 223 233 154 177 246 270 195 255 258 195 192 170 143 170 157 150 178 211 166 165 153 142 137
310 308 316 315 312 314 318 322 319 317 317 315 312 311 282 243 242 248 304 350 201 207 208 196 175 157 224 245 332 215 239 178 147 152 167 133 182 175 201 165 136 136 140 148 145
310 311 313 314 313 314 316 315 315 315 314 313 304 290 192 258 251 256 277 272 203 198 184 180 204 202 240 229 163 229 207 182 167 174 154 132 176 124 231 159 143 145 159 156 149
305 310 310 312 314 315 312 312 311 309 308 305 293 236 238 235 250 221 269 252 238 208 167 209 217 188 168 259 206 168 111 347 250 191 189 129 197 231 183 162 161 160 160 150 157
302 300 304 308 309 311 311 311 309 306 302 291 262 176 245 262 268 256 265 266 230 219 223 222 221 204 162 175 6 165 84 186 256 150 272 125 261 253 169 162 177 167 166 155 165
304 307 306 307 309 310 309 311 311 303 289 234 150 168 261 293 235 244 237 225 231 225 230 243 206 201 77 100 356 358 251 227 296 190 143 169 258 261 169 174 178 177 169 161 153
308 310 313 311 310 313 309 315 313 292 126 153 271 103 270 244 225 223 228 216 163 163 263 196 67 152 69 104 234 246 273 264 259 216 188 201 249 277 188 185 178 175 169 167 158
307 311 312 314 312 319 324 337 334 299 225 195 197 235 311 292 263 199 190 149 205 111 197 171 149 205 213 206 204 222 236 257 246 244 182 225 224 231 196 205 171 173 177 174 178
301 304 308 311 313 315 309 248 122 303 289 252 248 243 265 302 310 281 181 151 130 211 191 34 217 214 219 211 203 237 253 273 283 245 178 253 245 216 187 215 180 171 185 179 185
290 297 306 312 316 310 238 239 308 345 245 270 209 224 227 165 216 245 163 164 164 207 210 218 241 192 174 265 266 258 231 250 236 338 234 127 302 209 220 180 158 188 177 169 180
285 289 299 312 300 331 254 292 319 339 292 273 211 241 191 169 242 219 188 148 206 202 180 217 207 188 186 223 185 267 235 247 249 157 236 141 257 293 230 209 190 177 180 183 189
278 283 291 304 306 292 313 325 326 135 276 250 210 207 172 167 153 231 206 159 193 173 151 222 164 187 220 234 197 249 240 233 229 206 142 300 87 265 119 218 227 199 189 184 190
268 271 273 283 261 260 303 315 314 78 240 265 202 185 156 178 183 197 169 168 176 178 217 201 199 161 213 230 194 245 260 48 45 87 34 233 151 285 225 211 207 191 192 178 184
255 257 246 248 243 319 326 330 180 211 203 221 217 169 192 175 196 190 194 169 192 176 200 175 210 192 152 204 2 115 82 289 333 346 220 264 111 229 250 238 199 187 185 174 176
247 243 242 242 259 280 331 111 224 205 209 232 177 163 192 168 201 192 204 219 231 186 170 189 233 187 201 178 207 204 184 172 213 226 260 188 230 255 231 275 217 192 172 155 169
241 228 234 242 241 246 358 206 216 180 196 213 83 158 208 201 167 182 206 218 202 184 211 193 230 230 178 183 158 221 176 204 131 354 44 255 298 319 25 38 107 133 149 169 178
219 186 229 234 211 158 180 226 214 188 134 204 191 175 178 184 187 190 185 209 209 175 174 209 220 206 236 138 209 166 174 87 0 177 252 275 267 246 271 176 150 158 173 175 165
210 196 224 203 158 173 216 217 215 304 169 194 227 191 209 178 190 204 213 218 194 196 186 148 152 257 144 179 215 205 158 57 125 138 188 194 263 222 247 198 200 187 176 179 176
202 204 179 153 162 204 226 219 234 220 230 221 151 204 184 189 169 204 212 199 193 190 180 195 166 211 211 255 243 177 187 155 172 226 153 158 262 29 277 214 198 201 181 179 178
207 184 170 166 190 216 231 223 243 234 240 160 233 196 182 181 203 204 192 184 186 198 190 164 217 230 294 29 17 180 173 134 114 91 185 154 263 84 116 233 197 189 176 176 169
162 181 157 207 223 216 220 226 219 240 293 289 293 26 85 109 284 255 174 300 17 173 229 177 179 204 226 225 158 189 185 184 140 127 169 229 289 308 325 228 196 182 173 173 177
184 269 199 174 212 225 160 293 217 244 215 153 252 173 93 130 298 216 188 286 283 240 253 169 217 217 230 212 197 191 177 188 164 171 181 225 208 231 274 151 281 257 148 170 174
174 224 326 173 207 210 204 210 222 216 209 229 242 309 186 218 183 333 57 351 261 15 15 322 218 152 206 194 205 208 202 189 188 105 68 142 245 211 150 158 188 193 178 180 188
251 341 247 242 164 168 212 207 166 179 288 241 297 316 243 270 238 237 253 252 241 282 268 221 147 122 226 196 119 252 194 171 172 186 172 193 230 161 286 250 227 220 202 187 188